www.pogodaiklimat.ru

Погода и климат >> Архив погоды >> Филиппины >> Амбулонг


ПОГОДА на Амбулонге

  • Прогноз погоды на Амбулонге
  • Монитор погоды на Амбулонге

АРХИВ ПОГОДЫ на Амбулонге

Время (UTC), дата Ветер
(напр.,м/с)
 
Видим.   Явления Облачность Т
(С)
Тd
(С)
f
(%)
Тe
(С)
Тes
(С)
Комфортность P
(гПа)
Po
(гПа)
Тmin
(С)
Tmax
(С)
R
(мм)
R24
(мм)
S
(см)
03 12.08 ЮЗ 5 18 км в посл. час ливневой дождь {туман} 8/4 600 м
[Cu med, cong Ac As]
+29.9 +27.5 87 +48 +52 опасность
перегрева
1007.8 1006.6 0.0
06 12.08 ЮЗ 5 18 км мгла {туман} 6/3 600 м
[Cu med, cong Ac As]
+31.8 +28.4 82 +53 +57 опасность
перегрева
1006.7 1005.5 0.0
09 12.08 ЮЗ 5 18 км мгла {туман} 5/1 600 м
[Cu med, cong Ac As Ci sp]
+30.5 +26.0 77 +46 +46 опасность
перегрева
1006.6 1005.4
12 12.08 ЮЗ 5 18 км мгла {туман} 9/4 600 м
[Cu med, cong Ac As]
+29.5 +27.8 91 +49 +49 опасность
перегрева
1008.1 1006.9 +32.1
15 12.08 ЮЗ 5 18 км в посл. час дождь {туман} 6/3 600 м
[Cu med, cong Ac As]
+28.0 +26.8 93 +44 +44 опасность
перегрева
1008.7 1007.5 0.4
18 12.08 ЮЗ 5 18 км мгла {туман} 8/3 600 м
[Cu med, cong Ac As]
+29.5 +26.2 82 +45 +45 опасность
перегрева
1006.5 1005.3 0.4
21 12.08 Ю 5 18 км мгла {туман} 9/4 600 м
[Cu med, cong Ac As]
+28.1 +26.7 92 +44 +44 опасность
перегрева
1004.8
00 13.08 ЮЗ 3 16 км осадки на расстоянии {туман} 8/4 600 м
[Cu med, cong Ac As]
+28.9 +26.0 84 +43 +45 опасность
перегрева
1007.9 1006.7 +27.1 0.4
03 13.08 ЮЗ 4 18 км мгла {туман} 6/4 600 м
[Cu med, cong Ac trans]
+31.5 +25.7 71 +46 +53 опасность
перегрева
1007.5 1006.3
06 13.08 ЮЗ 4 18 км мгла {туман} 6/3 600 м
[Cu med, cong Ac trans Ci sp]
+31.6 +26.0 72 +47 +53 опасность
перегрева
1006.3 1005.1
09 13.08 ЮЗ 4 18 км мгла {туман} 8/3 600 м
[Cu med, cong Ac As]
+30.0 +25.6 77 +44 +45 опасность
перегрева
1006.5 1005.3
12 13.08 ЮЗ 3 18 км мгла {туман} 9/4 600 м
[Cu med, cong Ac trans]
+29.3 +25.2 79 +43 +43 опасность
перегрева
1009.3 1008.1 +31.9
15 13.08 ЮЗ 3 18 км мгла {туман} 8/3 600 м
[Cu med, cong Ac As Ci sp]
+28.5 +25.1 82 +41 +41 опасность
перегрева
1010.0 1008.8
18 13.08 ЮЗ 4 18 км мгла {туман} 4/1 600 м
[Cu med, cong Ac As Ci sp]
+28.8 +25.4 82 +42 +42 опасность
перегрева
1008.3 1007.1
21 13.08 ЮЗ 4 18 км мгла {туман} 5/1 600 м
[Cu med, cong Ac As Ci sp]
+28.8 +25.1 80 +42 +42 опасность
перегрева
1008.3 1007.1
00 14.08 ЮЗ 4 18 км мгла {туман} 5/1 600 м
[Cu med, cong Ac As Ci sp]
+29.9 +25.3 76 +43 +47 опасность
перегрева
1009.0 1007.8 +27.6
03 14.08 ЮЗ 4 18 км мгла {туман} 8/4 600 м
[Cu med, cong Ac As Ci sp]
+31.7 +25.6 70 +46 +52 опасность
перегрева
1008.4 1007.2
06 14.08 ЮЗ 4 18 км мгла {туман} 5/3 600 м
[Cu med, cong Ac As Ci sp]
+32.2 +25.6 68 +47 +54 опасность
перегрева
1007.3 1006.1
09 14.08 ЮЗ 3 18 км мгла {туман} 8/4 600 м
[Cu med, cong Ac As]
+30.6 +27.2 82 +48 +49 опасность
перегрева
1007.5 1006.3
12 14.08 ЮЗ 3 18 км мгла {туман} 5/3 600 м
[Cu med, cong Ac As Ci sp]
+29.0 +25.5 81 +43 +43 опасность
перегрева
1009.3 1008.1 +32.9
15 14.08 ЮЗ 3 18 км мгла {туман} 5/3 600 м
[Cu med, cong Ac As Ci sp]
+28.2 +25.3 84 +41 +41 опасность
перегрева
1010.1 1008.9
18 14.08 ЮЗ 4 18 км мгла {туман} 5/1 600 м
[Cu med, cong Ac As Ci sp]
+28.5 +25.2 82 +41 +41 опасность
перегрева
1008.4 1007.2
21 14.08 ЮЗ 3 18 км мгла {туман} 5/1 600 м
[Cu med, cong Ac As Ci sp]
+28.4 +25.1 82 +41 +41 опасность
перегрева
1008.7 1007.5
00 15.08 ЮЗ 3 16 км мгла {туман} 9/3 600 м
[Cu med, cong Ac As Ci sp]
+28.9 +27.2 91 +46 +48 опасность
перегрева
1010.1 1008.9 +26.5
03 15.08 ЮЗ 3 17 км мгла {туман} 8/4 600 м
[Cu med, cong Ac As Ci sp]
+32.9 +26.6 70 +50 +57 опасность
перегрева
1010.0 1008.8
06 15.08 ЮЗ 4
{10}
17 км мгла {туман} 8/4 600 м
[Cu med, cong Ac As Ci sp]
+31.8 +27.6 79 +51 +56 опасность
перегрева
1008.2 1007.0
09 15.08 ЮЗ 3 18 км мгла {туман} 8/4 600 м
[Cu med, cong Ac As Ci sp]
+30.8 +26.6 78 +47 +48 опасность
перегрева
1008.2 1007.0
12 15.08 ЮЗ 2 18 км мгла {туман} 5/3 600 м
[Cu med, cong Ci sp]
+28.9 +26.7 88 +45 +45 опасность
перегрева
1009.7 1008.5 +32.8
15 15.08 ЮЗ 2 18 км мгла {туман} 6/3 600 м
[Cu med, cong Ac As Ci sp]
+28.6 +26.3 87 +43 +43 опасность
перегрева
1010.7 1009.5
18 15.08 ЮЗ 3 18 км мгла {туман} 4/1 600 м
[Cu med, cong Ci sp]
+28.2 +26.0 88 +42 +42 опасность
перегрева
1009.2 1008.0
21 15.08 СВ 1 18 км мгла {туман} 4/1 600 м
[Cu med, cong Ci sp]
+25.8 +24.7 94 +37 +37 очень
душно
1009.2 1008.0
00 16.08 ЮЗ 2 17 км мгла {туман} 8/1 600 м
[Cu med, cong Ac As Ci sp]
+28.2 +26.0 88 +42 +46 опасность
перегрева
1009.6 1008.4 +24.2
03 16.08 ЮЗ 3 18 км мгла {туман} 5/3 600 м
[Cu med, cong Ci sp]
+33.5 +26.3 66 +50 +61 опасность
перегрева
1010.4 1009.2
06 16.08 Ю 3 18 км мгла {туман} 4/3 600 м
[Cu med, cong Ci sp]
+32.8 +28.0 76 +53 +63 опасность
перегрева
1009.2 1008.0
09 16.08 ЮЗ 3 18 км мгла {туман} 3/3 600 м
[Cu med, cong]
+31.8 +27.2 77 +50 +51 опасность
перегрева
1009.1 1007.9
12 16.08 штиль 0 18 км мгла {туман} 3/1 600 м
[Cu med, cong Ci sp]
+28.5 +25.5 84 +42 +42 опасность
перегрева
1010.2 1009.0 +33.5
15 16.08 Ю 2 18 км мгла {туман} 3/1 600 м
[Cu med, cong Ci sp]
+29.0 +26.0 84 +44 +44 опасность
перегрева
1011.7 1010.5
18 16.08 Ю 1 18 км мгла {туман} 1/1 600 м
[Cu med, cong]
+28.0 +25.4 86 +41 +41 опасность
перегрева
1010.8 1009.6
21 16.08 СВ 1 18 км мгла {туман} 1/1 600 м
[Cu med, cong]
+25.6 +24.5 94 +36 +36 очень
душно
1010.5 1009.3
00 17.08 штиль 0 18 км мгла {туман} 4/3 600 м
[Cu med, cong Ac As Ci sp]
+28.8 +25.3 81 +42 +48 опасность
перегрева
1011.1 1009.9 +24.1
03 17.08 ЮЗ 1 18 км мгла {туман} 4/4 600 м
[Cu med, cong Ac As Ci sp]
+32.3 +25.7 68 +47 +62 опасность
перегрева
1010.7 1009.5
06 17.08 ЮЗ 3 18 км мгла {туман} 4/4 600 м
[Cu med, cong Ci sp]
+33.1 +26.4 68 +50 +58 опасность
перегрева
1008.7 1007.5
09 17.08 ЮЗ 3 18 км мгла {туман} 4/3 600 м
[Cu med, cong Ac As Ci sp]
+32.5 +25.3 66 +47 +48 опасность
перегрева
1008.5 1007.3
12 17.08 ЮЗ 1 18 км мгла {туман} 4/1 600 м
[Cu med, cong Ac As Ci sp]
+29.3 +25.6 81 +43 +43 опасность
перегрева
1010.4 1009.2 +33.8
15 17.08 штиль 0 18 км мгла {туман} 3/1 600 м
[Cu med, cong Ci sp]
+26.9 +24.9 89 +39 +39 очень
душно
1011.4 1010.2
18 17.08 штиль 0 18 км мгла {туман} 5/1 600 м
[Cu med, cong Cs]
+26.0 +24.7 93 +37 +37 очень
душно
1010.5 1009.3
21 17.08 СВ 1 18 км мгла {туман} 4/1 600 м
[Cu med, cong Cs]
+25.4 +24.5 95 +36 +36 очень
душно
1010.2 1009.0
00 18.08 штиль 0 18 км мгла {туман} 6/3 600 м
[Cu med, cong Ac trans Cs]
+28.5 +26.4 88 +43 +48 опасность
перегрева
1010.7 1009.5 +24.4
03 18.08 ЮЗ 1 18 км мгла {туман} 6/4 600 м
[Cu med, cong Ac As Ci sp]
+32.8 +27.1 72 +51 +63 опасность
перегрева
1010.3 1009.1
06 18.08 ЮЗ 3 18 км мгла {туман} 6/4 600 м
[Cu med, cong Ac As Ci sp]
+33.9 +26.3 65 +51 +57 опасность
перегрева
1007.9 1006.7
09 18.08 ЮЗ 3 18 км мгла {туман} 6/4 600 м
[Cu med, cong Ac trans Ci sp]
+31.6 +25.3 69 +46 +46 опасность
перегрева
1007.0 1005.8
12 18.08 штиль 0 18 км мгла {туман} 8/3 600 м
[Cu med, cong Ac As Ci sp]
+29.4 +25.1 78 +43 +43 опасность
перегрева
1009.3 1008.1 +34.3
15 18.08 штиль 0 18 км мгла {туман} 4/1 600 м
[Cu med, cong Ac As Ci sp]
+27.0 +24.4 86 +38 +38 очень
душно
1010.3 1009.1
18 18.08 штиль 0 18 км мгла {туман} 4/1 600 м
[Cu med, cong Ci sp]
+26.2 +24.2 89 +36 +36 очень
душно
1008.7 1007.5
21 18.08 штиль 0 18 км мгла {туман} 3/1 600 м
[Cu med, cong Ci sp]
+25.2 +24.1 94 +35 +35 очень
душно
1007.9 1006.7
00 19.08 штиль 0 18 км мгла {туман} 4/1 600 м
[Cu med, cong Ac As Ci sp]
+28.8 +26.7 88 +45 +51 опасность
перегрева
1008.3 1007.1 +25.4

 

Местоположение метеостанции Амбулонг (Филиппины): широта 14.08 долгота 121.05 высота над уровнем моря 11 м.

В архиве по умолчанию представлена погода на Амбулонге за последнюю неделю. Архивные данные за месяц целиком и за предыдущие месяцы, начиная с января 2011 года, Вы можете получить, выбрав интересующий диапазон дат из раскрывающегося списка и нажав кнопку "Ввод!".


*Определитесь, кто Вы:
робот инопланетянин человек

Внимание! Время в таблицах - всемирное. Для получения местного времени необходимо прибавить поправку, которая равна 8 ч.

Смотрите также архив погоды в соседних городах и на ближайших метеорологических станциях:

Погода в Сангли Пойнт (Филиппины) (49 км)
Погода в Аэропорту Ninoy Aquino (Филиппины) (49 км)
Погода в Маниле (Филиппины) (56 км)
Погода в Танае (Филиппины) (57 км)
Погода в Тайябасе (Филиппины) (57 км)
Погода в Научном саду (Филиппины) (61 км)
Погода в Калапане (Филиппины) (75 км)
Погода в Инфанте (Филиппины) (99 км)
Погода на Алабате (Филиппины) (104 км)
Погода в Куби Пойнт (Филиппины) (117 км)

Пояснения к столбцам:

Ветер - указаны скорость ветра в м/с - средняя за 10 мин, порывы в срок и между сроками (в фигурных скобках) и направление, откуда дует ветер: С - северный, СВ - северо-восточный, В - восточный, ЮВ - юго-восточный, Ю - южный, ЮЗ - юго-западный, З - западный, СЗ - северо-западный.
Видимость - горизонтальная дальность видимости в метрах или километрах. При видимости от 1 до 10 км при отсутствии осадков обычно наблюдается дымка, при ухудшении видимости до 1 км и менее - туман. В сухую погоду видимость может ухудшаться дымом, пылью или мглою.
Явления - указаны атмосферные явления, наблюдавшиеся в срок или в последний час перед сроком; фигурными скобками обозначены явления, наблюдавшиеся между сроками (за 1-3 часа до срока); квадратными скобками обозначены град или гололедные отложения с указанием их диаметра в мм.
Облачность - указаны через наклонную черту общая и нижняя облачность в баллах и высота нижней границы облаков в метрах; квадратными скобками обозначены формы облаков: Ci - перистые, Cs - перисто-слоистые, Cc - перисто-кучевые, Ac - высококучевые, As - высокослоистые, Sc - слоисто-кучевые, Ns - слоисто-дождевые, Cu - кучевые, Cb - кучево-дождевые. Подробнее классификацию облаков см. в Атласе облаков (PDF).
T - Температура воздуха - температура, измеренная на высоте 2 м над землей.
Td - Температура точки росы - температура, при понижении до которой содержащийся в воздухе водяной пар достигнет насыщения.
f - Относительная влажность воздуха - влажноcть воздуха, измеренная на высоте 2 м над землей.
Te - Эффективная температура - температура, которую ощущает одетый по сезону человек в тени. Характеристика душности погоды. При расчете учитывается влияние влажности воздуха и скорости ветра на теплоощущения человека.
Tes - Эффективная температура на солнце - температура, которую ощущает человек, с поправкой на солнечный нагрев. Характеристика знойности погоды. Зависит от высоты солнца над горизонтом, облачности и скорости ветра. Ночью, в пасмурную погоду, а также при ветре 12 м/с и более поправка равна нулю.
P - Атмосферное давление - приведенное к уровню моря атмосферное давление.
Po - Атмосферное давление - измеренное на уровне метеостанции атмосферное давление.
Tmin - Минимальная температура - минимум температуры воздуха на высоте 2 м над землей.
Tmax - Максимальная температура - максимум температуры воздуха на высоте 2 м над землей.
R - Количество осадков - Количество выпавших осадков за период времени, мм. При наведении курсора мыши на число - период времени, за который выпало указанное количество осадков.
R24 - Количество осадков - Количество выпавших осадков за 24 часа, мм.
S - Снежный покров - Высота снежного покрова, см. При наведении курсора мыши на число - состояние снежного покрова и степень покрытия местности в баллах.